GW2884 Weather Reports


time (UTC)temp
C
wind
direction
speed
KPH
gust
KPH
rain 1hr
cm
rain 24hr
cm
rain mn
cm
humidity
%
barometer
mb
20260906191234 27 56 3.2 3.2 0.00 0.00 0.00 69 1020.0
20260906190728 27 163 0.0 0.0 0.00 0.00 0.00 74 1020.0
20260906190223 27 143 1.6 1.6 0.00 0.00 0.00 71 1020.0
20260906185722 27 203 3.2 4.8 0.00 0.00 0.00 71 1020.2
20260906185221 28 54 4.8 6.4 0.00 0.00 0.00 71 1020.3
20260906184716 28 203 3.2 3.2 0.00 0.00 0.00 70 1020.2
20260906184211 27 162 0.0 1.6 0.00 0.00 0.00 75 1020.4
20260906183707 26 77 1.6 1.6 0.00 0.00 0.00 73 1020.4
20260906183203 26 37 3.2 3.2 0.00 0.00 0.00 75 1020.4
20260906182703 27 129 3.2 3.2 0.00 0.00 0.00 72 1020.4
20260906182159 27 193 3.2 4.8 0.00 0.00 0.00 71 1020.5
20260906181654 26 16 1.6 1.6 0.00 0.00 0.00 71 1020.4
20260906181149 27 208 3.2 4.8 0.00 0.00 0.00 75 1020.6
20260906180644 26 34 4.8 6.4 0.00 0.00 0.00 76 1020.5
20260906180139 26 175 0.0 0.0 0.00 0.00 0.00 76 1020.8
20260906175637 27 233 1.6 3.2 0.00 0.00 0.00 75 1020.9
20260906175132 26 66 0.0 0.0 0.00 0.00 0.00 76 1021.0
20260906174631 26 168 3.2 4.8 0.00 0.00 0.00 77 1020.9
20260906174126 26 123 3.2 4.8 0.00 0.00 0.00 76 1020.8
20260906173620 26 84 3.2 3.2 0.00 0.00 0.00 82 1020.9
20260906173116 26 53 3.2 4.8 0.00 0.00 0.00 80 1021.1
20260906172610 25 159 0.0 0.0 0.00 0.00 0.00 81 1021.3
20260906172106 25 179 3.2 3.2 0.00 0.00 0.00 82 1021.5
20260906171605 25 181 1.6 1.6 0.00 0.00 0.00 84 1021.4
20260906171101 24 183 3.2 4.8 0.00 0.00 0.00 84 1021.5
20260906170557 25 30 3.2 4.8 0.00 0.00 0.00 83 1021.5
20260906170056 25 163 0.0 1.6 0.00 0.00 0.00 82 1021.6
20260906165552 25 210 0.0 0.0 0.00 0.00 0.00 85 1021.5
20260906165047 25 80 4.8 4.8 0.00 0.00 0.00 81 1021.5
20260906164547 24 129 1.6 3.2 0.00 0.00 0.00 85 1021.6
20260906164042 24 117 3.2 3.2 0.00 0.00 0.00 85 1021.4
20260906163538 24 91 6.4 9.7 0.00 0.00 0.00 84 1021.5
20260906163033 24 175 1.6 1.6 0.00 0.00 0.00 84 1021.5
20260906162530 23 120 0.0 1.6 0.00 0.00 0.00 85 1021.3
20260906162025 23 165 1.6 4.8 0.00 0.00 0.00 87 1021.6
20260906161521 23 88 1.6 1.6 0.00 0.00 0.00 85 1021.5
20260906161019 23 99 0.0 0.0 0.00 0.00 0.00 85 1021.4
20260906160518 23 109 0.0 1.6 0.00 0.00 0.00 85 1021.4
20260906160017 23 102 0.0 1.6 0.00 0.00 0.00 84 1021.4
20260906155515 24 143 3.2 4.8 0.00 0.00 0.00 83 1021.2
20260906155011 23 54 3.2 4.8 0.00 0.00 0.00 83 1021.2
20260906154506 24 71 6.4 11.3 0.00 0.00 0.00 82 1021.2
20260906154005 23 58 0.0 1.6 0.00 0.00 0.00 82 1021.3
20260906153503 23 98 0.0 1.6 0.00 0.00 0.00 81 1021.1
20260906152959 22 73 4.8 6.4 0.00 0.00 0.00 85 1021.4
20260906152459 22 43 6.4 11.3 0.00 0.00 0.00 85 1021.3
20260906151953 21 144 0.0 0.0 0.00 0.00 0.00 87 1021.1
20260906151448 21 37 4.8 4.8 0.00 0.00 0.00 87 1021.2
20260906150943 22 63 1.6 1.6 0.00 0.00 0.00 87 1021.1
20260906150438 21 82 4.8 4.8 0.00 0.00 0.00 88 1021.2
20260906145932 21 54 0.0 1.6 0.00 0.00 0.00 86 1021.2
20260906145426 21 159 0.0 0.0 0.00 0.00 0.00 88 1021.3
20260906144920 21 41 3.2 3.2 0.00 0.00 0.00 88 1021.4
20260906144415 21 136 0.0 1.6 0.00 0.00 0.00 86 1021.2
20260906143910 20 72 0.0 0.0 0.00 0.00 0.00 86 1021.3
20260906143406 20 77 3.2 4.8 0.00 0.00 0.00 89 1021.3
20260906142901 20 140 0.0 0.0 0.00 0.00 0.00 90 1021.0
20260906142355 20 133 0.0 0.0 0.00 0.00 0.00 88 1021.2
20260906141850 18 151 1.6 1.6 0.00 0.00 0.00 90 1021.2
20260906141345 18 63 0.0 0.0 0.00 0.00 0.00 93 1021.4
20260906140844 18 191 3.2 3.2 0.00 0.00 0.00 93 1021.6
20260906140339 18 244 1.6 3.2 0.00 0.00 0.00 89 1021.8
20260906135836 18 99 0.0 1.6 0.00 0.00 0.00 93 1021.3
20260906135331 17 37 1.6 1.6 0.00 0.00 0.00 95 1021.4
20260906134826 17 47 1.6 3.2 0.00 0.00 0.00 95 1021.4
20260906134322 16 41 1.6 3.2 0.00 0.00 0.00 98 1021.4
20260906133817 15 62 0.0 1.6 0.00 0.00 0.00 99 1021.3
20260906133312 15 49 3.2 3.2 0.00 0.00 0.00 99 1021.2
20260906132808 15 55 1.6 3.2 0.00 0.00 0.00 99 1021.4
20260906132306 15 42 3.2 3.2 0.00 0.00 0.00 99 1021.2
20260906131759 15 54 0.0 0.0 0.00 0.00 0.00 99 1021.3
20260906131254 15 40 0.0 0.0 0.00 0.00 0.00 99 1021.3
20260906130749 15 41 1.6 1.6 0.00 0.00 0.00 99 1021.3
20260906130244 14 60 0.0 0.0 0.00 0.00 0.00 99 1021.5
20260906125742 14 54 0.0 0.0 0.00 0.00 0.00 99 1021.5
20260906125241 14 144 0.0 0.0 0.00 0.00 0.00 99 1021.6
20260906124736 13 144 0.0 0.0 0.00 0.00 0.00 99 1021.5
20260906124231 13 144 0.0 0.0 0.00 0.00 0.00 99 1021.4
20260906123730 13 144 0.0 0.0 0.00 0.00 0.00 99 1021.5
20260906123226 14 144 0.0 0.0 0.00 0.00 0.00 99 1021.2
20260906122725 13 281 0.0 0.0 0.00 0.00 0.00 99 1021.4
20260906122220 13 284 0.0 0.0 0.00 0.00 0.00 99 1021.5
20260906121717 13 312 0.0 0.0 0.00 0.00 0.00 99 1021.0
20260906121213 12 312 0.0 0.0 0.00 0.00 0.00 99 1020.7
20260906120708 12 311 0.0 0.0 0.00 0.00 0.00 99 1021.0
20260906120205 12 311 0.0 0.0 0.00 0.00 0.00 99 1020.7
20260906115700 12 311 0.0 0.0 0.00 0.00 0.00 99 1020.9
20260906115155 12 311 0.0 0.0 0.00 0.00 0.00 99 1020.7
20260906114654 12 311 0.0 0.0 0.00 0.00 0.00 99 1020.9
20260906114150 12 311 0.0 0.0 0.00 0.00 0.00 99 1020.9
20260906113649 12 311 0.0 0.0 0.00 0.00 0.00 99 1020.7
20260906113144 11 19 0.0 0.0 0.00 0.00 0.00 99 1020.7
20260906112643 11 139 0.0 0.0 0.00 0.00 0.00 99 1020.5
20260906112141 12 139 0.0 0.0 0.00 0.00 0.00 99 1020.4
20260906111640 12 82 0.0 0.0 0.00 0.00 0.00 99 1020.3
20260906111134 12 75 0.0 0.0 0.00 0.00 0.00 99 1020.3
20260906110629 12 78 0.0 0.0 0.00 0.00 0.00 99 1020.4
20260906110124 12 54 0.0 0.0 0.00 0.00 0.00 99 1020.2
20260906105618 12 65 0.0 0.0 0.00 0.00 0.00 99 1020.2
20260906105115 12 67 0.0 0.0 0.00 0.00 0.00 99 1020.2
20260906104614 12 71 0.0 0.0 0.00 0.00 0.00 99 1020.3
20260906104108 12 74 0.0 0.0 0.00 0.00 0.00 99 1020.1
20260906103606 12 66 0.0 0.0 0.00 0.00 0.00 99 1019.9
20260906103101 12 98 0.0 0.0 0.00 0.00 0.00 99 1020.0
20260906102555 12 97 0.0 0.0 0.00 0.00 0.00 99 1019.9
20260906102050 12 74 0.0 0.0 0.00 0.00 0.00 99 1019.9
20260906101545 12 304 0.0 0.0 0.00 0.00 0.00 99 1020.0
20260906101039 12 303 0.0 0.0 0.00 0.00 0.00 99 1020.0
20260906100535 12 303 0.0 0.0 0.00 0.00 0.00 99 1020.1
20260906100030 12 51 0.0 0.0 0.00 0.00 0.00 99 1020.1
20260906095524 12 51 0.0 0.0 0.00 0.00 0.00 99 1020.1
20260906095020 12 51 0.0 0.0 0.00 0.00 0.00 99 1019.7
20260906094518 12 51 0.0 0.0 0.00 0.00 0.00 99 1019.9
20260906094015 12 51 0.0 0.0 0.00 0.00 0.00 99 1019.9
20260906093511 12 51 0.0 0.0 0.00 0.00 0.00 99 1020.0
20260906093011 13 51 0.0 0.0 0.00 0.00 0.00 99 1019.8
20260906092511 13 51 0.0 0.0 0.00 0.00 0.00 99 1020.0
20260906092006 13 51 0.0 0.0 0.00 0.00 0.00 99 1020.0
20260906091501 13 51 0.0 0.0 0.00 0.00 0.00 99 1020.1
20260906090958 13 51 0.0 0.0 0.00 0.00 0.00 99 1019.9
20260906090453 13 51 0.0 0.0 0.00 0.00 0.00 99 1019.8
20260906085952 13 56 0.0 0.0 0.00 0.00 0.00 99 1019.9
20260906085452 13 79 0.0 0.0 0.00 0.00 0.00 99 1019.9
20260906084951 13 37 0.0 1.6 0.00 0.00 0.00 99 1019.7
20260906084446 13 67 1.6 1.6 0.00 0.00 0.00 99 1019.8
20260906083945 13 42 1.6 1.6 0.00 0.00 0.00 99 1019.9
20260906083441 13 55 0.0 0.0 0.00 0.00 0.00 99 1020.0
20260906082940 13 49 0.0 1.6 0.00 0.00 0.00 99 1020.0
20260906082435 13 40 1.6 1.6 0.00 0.00 0.00 99 1020.2
20260906081931 13 41 0.0 0.0 0.00 0.00 0.00 99 1020.2
20260906081426 13 44 0.0 0.0 0.00 0.00 0.00 99 1020.2
20260906080922 13 44 0.0 0.0 0.00 0.00 0.00 99 1020.1
20260906080419 13 45 0.0 0.0 0.00 0.00 0.00 99 1020.3
20260906075918 13 45 0.0 0.0 0.00 0.00 0.00 99 1020.2
20260906075413 13 44 0.0 0.0 0.00 0.00 0.00 99 1020.4
20260906074908 13 90 0.0 0.0 0.00 0.00 0.00 99 1020.4
20260906074403 13 71 0.0 0.0 0.00 0.00 0.00 99 1020.4
20260906073902 14 71 0.0 0.0 0.00 0.00 0.00 99 1020.5
20260906073357 13 71 0.0 0.0 0.00 0.00 0.00 99 1020.5
20260906072853 13 71 0.0 0.0 0.00 0.00 0.00 99 1020.5
20260906072349 13 72 0.0 0.0 0.00 0.00 0.00 99 1020.5
20260906071845 13 71 0.0 0.0 0.00 0.00 0.00 99 1020.6
20260906071340 13 71 0.0 0.0 0.00 0.00 0.00 99 1020.7
20260906070835 13 109 0.0 0.0 0.00 0.00 0.00 99 1020.7
20260906070330 13 162 0.0 0.0 0.00 0.00 0.00 99 1020.8
20260906065825 14 22 0.0 0.0 0.00 0.00 0.00 99 1020.8
20260906065320 14 52 0.0 0.0 0.00 0.00 0.00 99 1020.7
20260906064816 14 53 0.0 0.0 0.00 0.00 0.00 99 1020.6
20260906064312 13 47 0.0 0.0 0.00 0.00 0.00 99 1020.7
20260906063806 13 67 0.0 0.0 0.00 0.00 0.00 99 1020.9
20260906063302 14 67 0.0 0.0 0.00 0.00 0.00 99 1021.0
20260906062757 14 179 0.0 0.0 0.00 0.00 0.00 99 1020.8
20260906062256 14 179 0.0 0.0 0.00 0.00 0.00 99 1021.2
20260906061752 15 179 0.0 0.0 0.00 0.00 0.00 99 1020.9
20260906061248 15 179 0.0 0.0 0.00 0.00 0.00 99 1021.0
20260906060744 14 180 0.0 0.0 0.00 0.00 0.00 99 1021.1
20260906060241 15 113 0.0 0.0 0.00 0.00 0.00 99 1020.8
20260906055737 15 313 0.0 0.0 0.00 0.00 0.00 99 1020.8
20260906055232 15 84 0.0 0.0 0.00 0.00 0.00 99 1020.7
20260906054727 15 85 0.0 0.0 0.00 0.00 0.00 99 1020.5
20260906054222 15 84 0.0 0.0 0.00 0.00 0.00 99 1020.6
20260906053719 15 95 0.0 0.0 0.00 0.00 0.00 99 1020.7
20260906053214 15 347 0.0 0.0 0.00 0.00 0.00 99 1020.6
20260906052709 15 52 0.0 0.0 0.00 0.00 0.00 99 1020.4
20260906052205 15 51 0.0 0.0 0.00 0.00 0.00 99 1020.5
20260906051702 15 51 0.0 0.0 0.00 0.00 0.00 99 1020.7
20260906051201 15 51 0.0 0.0 0.00 0.00 0.00 99 1020.6
20260906050656 16 51 0.0 0.0 0.00 0.00 0.00 99 1020.6
20260906050151 16 51 0.0 0.0 0.00 0.00 0.00 99 1020.6
20260906045649 16 51 0.0 0.0 0.00 0.00 0.00 99 1020.4
20260906045146 15 51 0.0 0.0 0.00 0.00 0.00 99 1020.7
20260906044641 16 51 0.0 0.0 0.00 0.00 0.00 99 1020.9
20260906044136 16 50 0.0 0.0 0.00 0.00 0.00 99 1020.8
20260906043632 16 49 0.0 0.0 0.00 0.00 0.00 99 1020.9
20260906043127 16 301 0.0 0.0 0.00 0.00 0.00 99 1020.9
20260906042627 16 60 0.0 0.0 0.00 0.00 0.00 99 1020.8
20260906042121 16 60 0.0 0.0 0.00 0.00 0.00 99 1020.7
20260906041617 16 61 0.0 0.0 0.00 0.00 0.00 99 1020.7
20260906041112 16 60 0.0 0.0 0.00 0.00 0.00 99 1020.9
20260906040608 16 153 0.0 0.0 0.00 0.00 0.00 99 1020.9
20260906040103 16 153 0.0 0.0 0.00 0.00 0.00 99 1020.9
20260906035558 16 85 0.0 0.0 0.00 0.00 0.00 99 1020.8
20260906035054 16 84 0.0 0.0 0.00 0.00 0.00 99 1020.9
20260906034553 16 84 0.0 0.0 0.00 0.00 0.00 99 1020.8
20260906034048 16 161 0.0 0.0 0.00 0.00 0.00 99 1020.9
20260906033544 16 162 0.0 0.0 0.00 0.00 0.00 99 1021.0
20260906033039 16 162 0.0 0.0 0.00 0.00 0.00 99 1021.0
20260906032536 16 162 0.0 0.0 0.00 0.00 0.00 99 1020.9
20260906032031 16 162 0.0 0.0 0.00 0.00 0.00 99 1021.0
20260906031526 16 162 0.0 0.0 0.00 0.00 0.00 99 1020.9
20260906031022 16 162 0.0 0.0 0.00 0.00 0.00 99 1020.6
20260906030521 16 162 0.0 0.0 0.00 0.00 0.00 99 1020.9
20260906030021 16 162 0.0 0.0 0.00 0.00 0.00 99 1020.8
20260906025520 17 115 0.0 0.0 0.00 0.00 0.00 99 1020.7
20260906025018 16 88 0.0 0.0 0.00 0.00 0.00 99 1020.4
20260906024513 17 60 0.0 0.0 0.00 0.00 0.00 99 1020.3
20260906024008 17 80 0.0 0.0 0.00 0.00 0.00 99 1020.4
20260906023504 17 108 0.0 0.0 0.00 0.00 0.00 98 1020.4
20260906022958 17 56 0.0 1.6 0.00 0.00 0.00 98 1020.3
20260906022449 17 34 1.6 1.6 0.00 0.00 0.00 99 1020.0
20260906021943 17 52 0.0 1.6 0.00 0.00 0.00 99 1019.8
20260906021437 17 64 0.0 0.0 0.00 0.00 0.00 98 1019.9
20260906020932 17 68 3.2 3.2 0.00 0.00 0.00 98 1019.8
20260906020427 17 46 1.6 1.6 0.00 0.00 0.00 98 1019.6
20260906015921 17 57 0.0 0.0 0.00 0.00 0.00 98 1019.6
20260906015420 17 63 1.6 1.6 0.00 0.00 0.00 98 1019.7
20260906014915 18 66 0.0 0.0 0.00 0.00 0.00 98 1019.5
20260906014414 18 353 1.6 1.6 0.00 0.00 0.00 98 1019.4
20260906013905 18 60 0.0 0.0 0.00 0.00 0.00 98 1019.2
20260906013400 18 40 1.6 1.6 0.00 0.00 0.00 99 1019.2
20260906012856 18 53 0.0 0.0 0.00 0.00 0.00 98 1019.2
20260906012350 18 62 0.0 0.0 0.00 0.00 0.00 98 1019.3
20260906011845 18 104 0.0 0.0 0.00 0.00 0.00 97 1019.2
20260906011339 18 52 0.0 0.0 0.00 0.00 0.00 97 1019.2
20260906010835 18 43 1.6 1.6 0.00 0.00 0.00 96 1019.0
20260906010331 18 35 1.6 1.6 0.00 0.00 0.00 96 1019.2
20260906005826 18 62 1.6 3.2 0.00 0.00 0.00 96 1019.0
20260906005326 18 46 0.0 1.6 0.00 0.00 0.00 96 1018.9
20260906004824 19 46 0.0 0.0 0.00 0.00 0.00 95 1018.9
20260906004324 19 100 0.0 1.6 0.00 0.00 0.00 95 1018.9
20260906003820 19 53 0.0 1.6 0.00 0.00 0.00 94 1019.2
20260906003315 20 12 1.6 1.6 0.00 0.00 0.00 93 1019.0
20260906002810 20 54 1.6 1.6 0.00 0.00 0.00 92 1018.9
20260906002309 20 52 3.2 3.2 0.00 0.00 0.00 92 1019.2
20260906001805 20 57 0.0 0.0 0.00 0.00 0.00 92 1019.2
20260906001301 20 65 0.0 1.6 0.00 0.00 0.00 92 1019.3
20260906000755 20 63 0.0 0.0 0.00 0.00 0.00 90 1019.2
20260906000250 20 59 0.0 0.0 0.00 0.00 0.00 90 1019.0
20260905235745 20 71 0.0 1.6 0.00 0.00 0.00 90 1019.3
20260905235244 20 38 1.6 3.2 0.00 0.00 0.00 89 1019.4
20260905234740 20 55 0.0 0.0 0.00 0.00 0.00 90 1019.3
20260905234235 21 31 1.6 1.6 0.00 0.00 0.00 89 1018.9
20260905233730 21 58 4.8 6.4 0.00 0.00 0.00 89 1018.8
20260905233230 21 17 4.8 6.4 0.00 0.00 0.00 88 1018.7
20260905232729 21 61 3.2 4.8 0.00 0.00 0.00 87 1018.7
20260905232225 21 1 3.2 3.2 0.00 0.00 0.00 88 1018.5
20260905231721 21 47 3.2 4.8 0.00 0.00 0.00 88 1018.7
20260905231217 21 26 3.2 3.2 0.00 0.00 0.00 88 1018.9
20260905230714 21 13 3.2 4.8 0.00 0.00 0.00 89 1018.9
20260905230211 21 77 1.6 1.6 0.00 0.00 0.00 90 1019.2
20260905225711 21 38 1.6 1.6 0.00 0.00 0.00 89 1018.8
20260905225206 21 53 4.8 6.4 0.00 0.00 0.00 88 1019.0
20260905224705 21 26 1.6 3.2 0.00 0.00 0.00 88 1018.9
20260905224201 21 46 3.2 3.2 0.00 0.00 0.00 88 1019.0
20260905223657 21 92 3.2 3.2 0.00 0.00 0.00 87 1019.4
20260905223153 21 40 4.8 4.8 0.00 0.00 0.00 86 1019.6
20260905222648 22 34 3.2 4.8 0.00 0.00 0.00 86 1019.4
20260905222143 22 42 3.2 3.2 0.00 0.00 0.00 85 1019.0
20260905221638 22 42 3.2 4.8 0.00 0.00 0.00 84 1019.0
20260905221135 22 40 1.6 3.2 0.00 0.00 0.00 85 1019.3
20260905220631 22 107 4.8 6.4 0.00 0.00 0.00 84 1019.5
20260905220127 22 60 1.6 1.6 0.00 0.00 0.00 85 1019.4
20260905215626 22 50 6.4 6.4 0.00 0.00 0.00 85 1019.4
20260905215122 22 64 3.2 3.2 0.00 0.00 0.00 85 1019.4
20260905214617 22 37 1.6 3.2 0.00 0.00 0.00 85 1019.5
20260905214112 22 48 1.6 1.6 0.00 0.00 0.00 83 1019.5
20260905213607 22 59 3.2 3.2 0.00 0.00 0.00 83 1019.8
20260905213102 22 73 1.6 1.6 0.00 0.00 0.00 84 1019.7
20260905212557 22 48 1.6 1.6 0.00 0.00 0.00 84 1019.7
20260905212057 22 57 3.2 3.2 0.00 0.00 0.00 82 1019.9
20260905211552 22 165 0.0 0.0 0.00 0.00 0.00 81 1020.0
20260905211047 22 43 1.6 3.2 0.00 0.00 0.00 82 1020.0
20260905210543 22 67 0.0 0.0 0.00 0.00 0.00 84 1020.0
20260905210037 22 83 0.0 0.0 0.00 0.00 0.00 83 1020.0
20260905205536 22 42 1.6 3.2 0.00 0.00 0.00 84 1020.0
20260905205031 22 61 0.0 0.0 0.00 0.00 0.00 85 1020.1
20260905204526 22 196 0.0 0.0 0.00 0.00 0.00 82 1020.3
20260905204021 22 212 0.0 0.0 0.00 0.00 0.00 82 1020.4
20260905203521 22 222 0.0 0.0 0.00 0.00 0.00 82 1020.4
20260905203016 22 65 1.6 1.6 0.00 0.00 0.00 83 1020.3
20260905202511 22 121 0.0 1.6 0.00 0.00 0.00 84 1020.2
20260905202007 22 50 1.6 3.2 0.00 0.00 0.00 84 1020.5
20260905201503 22 75 0.0 0.0 0.00 0.00 0.00 85 1020.3
20260905201002 22 177 0.0 0.0 0.00 0.00 0.00 87 1020.3
20260905200458 22 207 0.0 0.0 0.00 0.00 0.00 86 1020.2
20260905195956 22 207 0.0 0.0 0.00 0.00 0.00 85 1020.3
20260905195451 22 194 0.0 0.0 0.00 0.00 0.00 84 1020.5
20260905194947 22 85 0.0 0.0 0.00 0.00 0.00 85 1020.5
20260905194446 22 91 0.0 0.0 0.00 0.00 0.00 84 1020.6
20260905193941 22 92 0.0 0.0 0.00 0.00 0.00 85 1020.6
20260905193441 22 96 0.0 0.0 0.00 0.00 0.00 85 1020.6
20260905192936 21 135 0.0 0.0 0.00 0.00 0.00 88 1020.7
20260905192431 21 65 3.2 3.2 0.00 0.00 0.00 87 1020.7
20260905191926 21 67 1.6 1.6 0.00 0.00 0.00 87 1020.5